When you browse on this site, cookies collect data to enhance your experience and personalize the content and advertising you see.
Visit our Privacy Policy to learn more. By continuing to use the site, you agree to this use of cookies and data.

Hourly Weather Fagersta

Today, 4 July, Saturday

Time Temperature Precipitation Wind Pressure Humidity
00:00 +9°C° 0 mm 2 mps 743 mmHg 84%
01:00 +9°C° 0 mm 2 mps 743 mmHg 86%
02:00 +9°C° 0.2 mm 2 mps 742 mmHg 88%
03:00 +10°C° 0.2 mm 3 mps 742 mmHg 89%
04:00 +10°C° 0.2 mm 3 mps 741 mmHg 90%
05:00 +10°C° 1.1 mm 3 mps 741 mmHg 93%
06:00 +12°C° 1.1 mm 2 mps 741 mmHg 95%
07:00 +12°C° 1.1 mm 2 mps 740 mmHg 98%
08:00 +12°C° 0.5 mm 2 mps 740 mmHg 97%
09:00 +12°C° 0.5 mm 1 mps 740 mmHg 96%
10:00 +13°C° 0.5 mm 1 mps 740 mmHg 96%
11:00 +13°C° 0.3 mm 1 mps 740 mmHg 93%
12:00 +14°C° 0.3 mm 1 mps 740 mmHg 90%
13:00 +14°C° 0.3 mm 1 mps 740 mmHg 88%
14:00 +16°C° 0 mm 1 mps 740 mmHg 75%
15:00 +18°C° 0 mm 1 mps 740 mmHg 61%
16:00 +19°C° 0 mm 2 mps 740 mmHg 48%
17:00 +20°C° 0 mm 1 mps 740 mmHg 50%
18:00 +19°C° 0 mm 1 mps 740 mmHg 52%
19:00 +19°C° 0 mm 1 mps 741 mmHg 55%
20:00 +16°C° 0 mm 1 mps 740 mmHg 63%
21:00 +15°C° 0 mm 1 mps 740 mmHg 72%
22:00 +13°C° 0 mm 1 mps 740 mmHg 81%
23:00 +13°C° 0 mm 1 mps 740 mmHg 82%

Tomorrow, 5 July, Sunday

Time Temperature Precipitation Wind Pressure Humidity
00:00 +11°C° 0 mm 0 mps 741 mmHg 83%
01:00 +11°C° 0 mm 0 mps 741 mmHg 84%
02:00 +11°C° 0 mm 0 mps 740 mmHg 84%
03:00 +11°C° 0 mm 0 mps 740 mmHg 84%
04:00 +11°C° 0 mm 0 mps 740 mmHg 84%
05:00 +14°C° 0 mm 1 mps 740 mmHg 80%
06:00 +15°C° 0 mm 1 mps 740 mmHg 76%
07:00 +16°C° 0 mm 2 mps 739 mmHg 71%
08:00 +17°C° 0.3 mm 2 mps 739 mmHg 72%
09:00 +17°C° 0.3 mm 2 mps 739 mmHg 72%
10:00 +18°C° 0.3 mm 3 mps 739 mmHg 73%
11:00 +17°C° 0.2 mm 3 mps 738 mmHg 75%
12:00 +17°C° 0.2 mm 3 mps 737 mmHg 77%
13:00 +17°C° 0.2 mm 3 mps 736 mmHg 80%
14:00 +16°C° 3.1 mm 3 mps 734 mmHg 86%
15:00 +14°C° 3.1 mm 3 mps 733 mmHg 92%
16:00 +14°C° 3.1 mm 3 mps 732 mmHg 98%
17:00 +14°C° 2.2 mm 3 mps 731 mmHg 96%
18:00 +15°C° 2.2 mm 4 mps 731 mmHg 94%
19:00 +15°C° 2.2 mm 4 mps 730 mmHg 91%
20:00 +14°C° 0.1 mm 4 mps 730 mmHg 91%
21:00 +13°C° 0.1 mm 4 mps 730 mmHg 91%
22:00 +12°C° 0.1 mm 4 mps 730 mmHg 91%
23:00 +12°C° 0.1 mm 4 mps 730 mmHg 90%

Day after tomorrow, 6 July, Monday

Time Temperature Precipitation Wind Pressure Humidity
00:00 +12°C° 0.1 mm 5 mps 730 mmHg 89%
01:00 +12°C° 0.1 mm 5 mps 730 mmHg 89%
02:00 +12°C° 0.1 mm 5 mps 729 mmHg 86%
03:00 +12°C° 0.1 mm 5 mps 729 mmHg 84%
04:00 +12°C° 0.1 mm 5 mps 729 mmHg 82%
05:00 +12°C° 0.2 mm 5 mps 729 mmHg 81%
06:00 +11°C° 0.2 mm 6 mps 729 mmHg 80%
07:00 +11°C° 0.2 mm 6 mps 728 mmHg 78%
08:00 +11°C° 0.6 mm 6 mps 728 mmHg 83%
09:00 +10°C° 0.6 mm 5 mps 728 mmHg 87%
10:00 +10°C° 0.6 mm 5 mps 728 mmHg 91%
11:00 +10°C° 0.4 mm 5 mps 728 mmHg 89%
12:00 +12°C° 0.4 mm 5 mps 729 mmHg 88%
13:00 +13°C° 0.4 mm 6 mps 729 mmHg 86%
14:00 +13°C° 0.7 mm 5 mps 729 mmHg 86%
15:00 +14°C° 0.7 mm 5 mps 729 mmHg 85%
16:00 +15°C° 0.7 mm 5 mps 729 mmHg 85%
17:00 +14°C° 0.9 mm 4 mps 730 mmHg 86%
18:00 +14°C° 0.9 mm 4 mps 731 mmHg 87%
19:00 +13°C° 0.9 mm 3 mps 731 mmHg 89%
20:00 +12°C° 0.3 mm 3 mps 732 mmHg 90%
21:00 +12°C° 0.3 mm 2 mps 732 mmHg 91%
22:00 +10°C° 0.3 mm 2 mps 733 mmHg 93%
23:00 +9°C° 0 mm 3 mps 733 mmHg 92%

7 July, Tuesday

Time Temperature Precipitation Wind Pressure Humidity
00:00 +9°C° 0 mm 3 mps 734 mmHg 90%
01:00 +8°C° 0 mm 4 mps 735 mmHg 89%
02:00 +8°C° 0 mm 4 mps 735 mmHg 87%
03:00 +8°C° 0 mm 4 mps 736 mmHg 84%
04:00 +8°C° 0 mm 4 mps 737 mmHg 81%
05:00 +10°C° 0 mm 4 mps 737 mmHg 73%
06:00 +11°C° 0 mm 4 mps 738 mmHg 64%
07:00 +13°C° 0 mm 4 mps 739 mmHg 56%
08:00 +14°C° 0 mm 4 mps 739 mmHg 52%
09:00 +16°C° 0 mm 3 mps 740 mmHg 49%
10:00 +17°C° 0 mm 3 mps 740 mmHg 46%
11:00 +17°C° 0 mm 3 mps 740 mmHg 44%
12:00 +18°C° 0 mm 3 mps 741 mmHg 42%
13:00 +18°C° 0 mm 3 mps 741 mmHg 41%
14:00 +18°C° 0.3 mm 3 mps 741 mmHg 48%
15:00 +17°C° 0.3 mm 3 mps 741 mmHg 55%
16:00 +16°C° 0.3 mm 3 mps 741 mmHg 62%
17:00 +16°C° 0.5 mm 2 mps 741 mmHg 69%
18:00 +15°C° 0.5 mm 2 mps 742 mmHg 76%
19:00 +14°C° 0.5 mm 1 mps 742 mmHg 82%
20:00 +13°C° 0.1 mm 1 mps 742 mmHg 84%
21:00 +12°C° 0.1 mm 1 mps 742 mmHg 85%
22:00 +11°C° 0.1 mm 1 mps 743 mmHg 87%
23:00 +10°C° 0 mm 1 mps 743 mmHg 88%

8 July, Wednesday

Time Temperature Precipitation Wind Pressure Humidity
00:00 +9°C° 0 mm 2 mps 743 mmHg 88%
01:00 +9°C° 0 mm 2 mps 744 mmHg 89%
02:00 +8°C° 0 mm 2 mps 744 mmHg 88%
03:00 +8°C° 0 mm 2 mps 745 mmHg 87%
04:00 +8°C° 0 mm 2 mps 745 mmHg 86%
05:00 +9°C° 0 mm 2 mps 745 mmHg 77%
06:00 +12°C° 0 mm 2 mps 746 mmHg 69%
07:00 +13°C° 0 mm 2 mps 746 mmHg 60%
08:00 +14°C° 0 mm 2 mps 746 mmHg 53%
09:00 +16°C° 0 mm 2 mps 747 mmHg 45%
10:00 +17°C° 0 mm 2 mps 747 mmHg 38%
11:00 +18°C° 0 mm 2 mps 747 mmHg 36%
12:00 +19°C° 0 mm 2 mps 747 mmHg 35%
13:00 +20°C° 0 mm 2 mps 747 mmHg 33%
14:00 +20°C° 0 mm 2 mps 747 mmHg 34%
15:00 +19°C° 0 mm 2 mps 747 mmHg 35%
16:00 +19°C° 0 mm 2 mps 747 mmHg 36%
17:00 +20°C° 0 mm 1 mps 747 mmHg 41%
18:00 +19°C° 0 mm 1 mps 746 mmHg 46%
19:00 +19°C° 0 mm 1 mps 746 mmHg 52%
20:00 +16°C° 0 mm 1 mps 746 mmHg 56%
21:00 +14°C° 0 mm 1 mps 746 mmHg 61%
22:00 +12°C° 0 mm 2 mps 746 mmHg 66%
23:00 +12°C° 0 mm 2 mps 745 mmHg 71%

9 July, Thursday

Time Temperature Precipitation Wind Pressure Humidity
00:00 +12°C° 0 mm 2 mps 745 mmHg 76%
01:00 +12°C° 0 mm 1 mps 744 mmHg 80%
02:00 +10°C° 0.9 mm 2 mps 744 mmHg 86%
03:00 +10°C° 0.9 mm 3 mps 743 mmHg 91%
04:00 +10°C° 0.9 mm 3 mps 742 mmHg 97%
05:00 +10°C° 0.8 mm 3 mps 741 mmHg 97%
06:00 +11°C° 0.8 mm 4 mps 741 mmHg 97%
07:00 +11°C° 0.8 mm 4 mps 740 mmHg 97%
08:00 +12°C° 0.2 mm 4 mps 740 mmHg 92%
09:00 +14°C° 0.2 mm 4 mps 739 mmHg 87%
10:00 +17°C° 0.2 mm 4 mps 739 mmHg 82%
11:00 +17°C° 0.4 mm 4 mps 739 mmHg 78%
12:00 +18°C° 0.4 mm 4 mps 738 mmHg 73%
13:00 +19°C° 0.4 mm 4 mps 738 mmHg 69%
14:00 +19°C° 0.3 mm 3 mps 737 mmHg 69%
15:00 +19°C° 0.3 mm 3 mps 737 mmHg 68%
16:00 +18°C° 0.3 mm 3 mps 736 mmHg 68%
17:00 +17°C° 0.8 mm 2 mps 736 mmHg 76%
18:00 +16°C° 0.8 mm 2 mps 736 mmHg 84%
19:00 +15°C° 0.8 mm 2 mps 736 mmHg 92%
20:00 +15°C° 0.5 mm 2 mps 736 mmHg 93%
21:00 +14°C° 0.5 mm 2 mps 736 mmHg 94%
22:00 +13°C° 0.5 mm 2 mps 736 mmHg 96%
23:00 +13°C° 0.1 mm 2 mps 736 mmHg 95%
Show more